Location: Unspecified
(0.0000°N, 0.0000°E)
Time: 22:16:49
(UTC+00:00)

Courier 1B Rocket - Visible Passes

Search period start: 25 April 2017 00:00
Search period end: 05 May 2017 00:00
Orbit: 921 x 1202 km, 28.3° (Epoch: 24 April)

Date Brightness Start Highest point End Pass type
(mag) Time Alt. Az. Time Alt. Az. Time Alt. Az.
25 Apr 6.4 19:37:07 10° NNW 19:43:34 30° NNE 19:44:59 28° NE visible
25 Apr 7.5 21:29:46 10° WNW 21:31:21 18° WNW 21:31:21 18° WNW visible
26 Apr 6.9 18:36:51 10° NNW 18:42:08 21° NNE 18:47:34 10° ENE visible
26 Apr 6.0 20:28:41 10° NW 20:34:12 49° NNW 20:34:12 49° NNW visible
27 Apr 5.9 19:27:53 10° NW 19:34:55 44° NNE 19:37:05 36° ENE visible
27 Apr 7.3 21:21:14 10° WNW 21:23:27 21° WNW 21:23:27 21° WNW visible
28 Apr 7.4 05:10:25 10° SSE 05:10:42 10° SSE 05:10:58 10° SSE visible
28 Apr 6.4 18:27:24 10° NNW 18:33:35 30° NNE 18:39:59 10° E visible
28 Apr 5.5 20:19:55 10° WNW 20:26:21 68° WNW 20:26:21 68° WNW visible
29 Apr 5.4 19:18:55 10° NW 19:26:12 65° NNE 19:29:17 38° E visible
29 Apr 7.2 21:13:02 10° W 21:15:40 22° W 21:15:40 22° W visible
30 Apr 7.2 04:58:31 10° SSW 05:02:32 16° SSE 05:06:25 10° ESE visible
30 Apr 5.9 18:18:13 10° NW 18:24:57 44° NNE 18:32:07 10° E visible
30 Apr 5.6 20:11:27 10° WNW 20:18:36 59° SW 20:18:36 59° SW visible
01 May 7.3 03:59:08 10° S 04:00:57 11° SSE 04:03:04 10° SE visible
01 May 5.3 19:10:12 10° WNW 19:17:28 85° SSW 19:21:33 31° SE visible
01 May 7.3 21:05:17 10° W 21:07:55 20° WSW 21:07:55 20° WSW visible
02 May 6.8 04:48:37 10° SSW 04:54:14 24° SSE 04:59:32 10° ESE visible
02 May 5.5 18:09:17 10° NW 18:16:15 66° NNE 18:23:45 10° ESE visible
02 May 6.1 20:03:20 10° W 20:10:06 39° SSW 20:10:52 38° SSW visible
03 May 7.0 03:51:21 16° S 03:52:46 17° SSE 03:57:11 10° ESE visible
03 May 5.7 19:01:48 10° WNW 19:08:47 57° SSW 19:13:48 22° SE visible
03 May 7.4 20:58:04 10° WSW 21:00:12 15° SW 21:00:12 15° SW visible
04 May 6.2 04:40:39 16° SSW 04:45:46 36° SSE 04:51:59 10° E visible
04 May 6.6 19:55:39 10° W 20:01:35 26° SSW 20:03:07 25° S visible
